www.pogodaiklimat.ru

Погода и климат >> Архив погоды >> Норвегия >> Ferder Fyr


ПОГОДА в Ferder Fyr

  • Прогноз погоды в Ferder Fyr
  • Монитор погоды в Ferder Fyr
  • Климат города

АРХИВ ПОГОДЫ в Ferder Fyr

Время (UTC), дата Ветер
(напр.,м/с)
 
Видим.   Явления Облачность Т
(С)
Тd
(С)
f
(%)
Тe
(С)
Тes
(С)
Комфортность P
(гПа)
Po
(гПа)
Тmin
(С)
Tmax
(С)
R
(мм)
R24
(мм)
S
(см)
02 11.10 В 5
{6}
н/о н/о +11.2 +8.8 85 +8 +8 1024.2 1023.3
01 11.10 В 3
{5}
н/о н/о +11.4 +9.2 86 +10 +10 1024.4 1023.5
03 11.10 СВ 6
{8}
н/о н/о +10.9 +8.7 86 +8 +8 1023.8 1022.9
04 11.10 СВ 7
{8}
н/о н/о +10.7 +8.5 86 +7 +7 1023.5 1022.6
05 11.10 СВ 7
{8}
н/о н/о +10.2 +8.1 87 +6 +6 1023.2 1022.3
06 11.10 СВ 7
{8}
н/о н/о +10.4 +8.3 87 +7 +7 1022.9 1022.0 +10.1 +12.0
08 11.10 СВ 6
{9}
н/о н/о +10.2 +8.3 88 +7 +7 1023.0 1022.1
07 11.10 СВ 7
{9}
н/о н/о +10.4 +8.3 87 +7 +7 1023.2 1022.3
09 11.10 СВ 7
{9}
н/о н/о +10.6 +8.7 88 +7 +7 1022.9 1022.0
10 11.10 С 8
{10}
н/о н/о +11.1 +9.2 88 +7 +7 1022.4 1021.5
11 11.10 С 9
{10}
н/о н/о +11.8 +9.7 87 +8 +8 1021.6 1020.7
12 11.10 С 9
{10}
н/о н/о +12.6 +10.3 86 +9 +9 1021.0 1020.1
14 11.10 С 9
{10}
н/о н/о +13.5 +10.7 83 +11 +11 1019.8 1018.9
13 11.10 С 9
{10}
н/о н/о +13.0 +10.4 84 +10 +10 1020.7 1019.8
15 11.10 С 9
{10}
н/о н/о +13.8 +10.8 82 +11 +11 1019.1 1018.2
16 11.10 С 8
{10}
н/о н/о +13.9 +11.1 83 +11 +11 1018.7 1017.8
17 11.10 СВ 6
{9}
н/о н/о +14.4 +11.7 84 +12 +12 1018.6 1017.7
18 11.10 С 6
{10}
н/о н/о +14.0 +11.7 86 +12 +12 1018.7 1017.8 +10.0 +14.5
20 11.10 СВ 5
{8}
н/о н/о +14.1 +10.9 81 +12 +12 1018.9 1018.0
19 11.10 СВ 6
{8}
н/о н/о +13.9 +11.4 85 +12 +12 1018.9 1018.0
21 11.10 В 8
{9}
н/о н/о +14.1 +10.9 81 +12 +12 1018.7 1017.8
22 11.10 В 8
{9}
н/о н/о +13.9 +10.7 81 +11 +11 1018.7 1017.8
23 11.10 ЮВ 7
{10}
н/о н/о +13.6 +10.6 82 +11 +11 1018.6 1017.7
00 12.10 В 8
{10}
н/о н/о +13.4 +10.4 82 +11 +11 1018.4 1017.5
02 12.10 В 8
{9}
н/о н/о +12.8 +10.0 83 +10 +10 1017.8 1016.9
01 12.10 В 7
{9}
н/о н/о +13.0 +10.2 83 +10 +10 1017.8 1016.9
03 12.10 В 6
{9}
н/о н/о +12.5 +9.7 83 +10 +10 1018.0 1017.1
04 12.10 В 6
{8}
н/о н/о +11.8 +9.4 85 +9 +9 1017.7 1016.8
05 12.10 н/о
06 12.10 СВ 7
{9}
н/о н/о +11.2 +9.0 86 +8 +8 1017.6 1016.7 +11.2 +14.2
08 12.10 СВ 6
{8}
н/о н/о +11.2 +9.1 87 +8 +8 1018.3 1017.4
07 12.10 СВ 6
{9}
н/о н/о +11.1 +9.0 87 +8 +8 1018.0 1017.1
09 12.10 В 6
{8}
н/о н/о +11.8 +9.4 85 +9 +9 1018.3 1017.4
10 12.10 В 6
{7}
н/о н/о +12.2 +9.6 84 +9 +9 1018.0 1017.1
11 12.10 В 5
{8}
н/о н/о +12.5 +9.9 84 +10 +10 1017.6 1016.7
12 12.10 В 4
{9}
н/о н/о +12.8 +10.0 83 +11 +11 1017.2 1016.3
14 12.10 Ю 9
{12}
н/о н/о +14.0 +11.3 84 +11 +11 1016.7 1015.8
13 12.10 ЮВ 3
{5}
н/о н/о +13.5 +10.7 83 +12 +12 1017.1 1016.2
15 12.10 Ю 8
{10}
н/о н/о +13.9 +11.4 85 +11 +11 1017.1 1016.2
16 12.10 Ю 7
{11}
н/о н/о +13.9 +12.0 88 +12 +12 1017.5 1016.6
17 12.10 Ю 7
{8}
н/о н/о +13.8 +12.0 89 +11 +11 1017.3 1016.4
18 12.10 Ю 8
{12}
н/о н/о +14.1 +12.2 88 +12 +12 1017.5 1016.6 +11.0 +14.2
20 12.10 Ю 6
{8}
н/о н/о +13.9 +12.0 88 +12 +12 1018.2 1017.3
19 12.10 Ю 7
{9}
н/о н/о +13.9 +12.0 88 +12 +12 1017.7 1016.8
21 12.10 Ю 7
{8}
н/о н/о +13.9 +12.0 88 +12 +12 1017.3 1016.4
22 12.10 Ю 8
{10}
н/о н/о +14.2 +12.2 88 +12 +12 1017.2 1016.3
23 12.10 Ю 9
{10}
н/о н/о +14.3 +12.2 87 +12 +12 1016.4 1015.5
00 13.10 Ю 10
{13}
н/о н/о +14.5 +12.2 86 +12 +12 1016.2 1015.3
02 13.10 Ю 12
{14}
н/о н/о +14.6 +12.3 86 +12 +12 1014.8 1013.9
01 13.10 Ю 12
{15}
н/о н/о +14.5 +12.2 86 +12 +12 1015.3 1014.4
03 13.10 Ю 12
{15}
н/о н/о +14.8 +12.3 85 +12 +12 1015.0 1014.1
04 13.10 Ю 13 н/о н/о +15.1 +12.4 84 +12 +12 1014.4 1013.5
05 13.10 Ю 12
{16}
н/о н/о +15.4 +12.5 83 +13 +13 1014.3 1013.4
06 13.10 Ю 12
{16}
н/о н/о +15.4 +12.5 83 +13 +13 1014.4 1013.5 +13.8 +15.5
08 13.10 Ю 12
{14}
н/о н/о +15.3 +12.4 83 +13 +13 1015.2 1014.3
07 13.10 Ю 12
{15}
н/о н/о +15.4 +12.5 83 +13 +13 1014.6 1013.7
09 13.10 Ю 10
{15}
н/о н/о +15.3 +12.4 83 +13 +13 1015.2 1014.3
10 13.10 Ю 11
{14}
н/о н/о +15.3 +12.4 83 +13 +13 1015.5 1014.6
11 13.10 Ю 10
{13}
н/о н/о +15.4 +12.5 83 +13 +13 1015.3 1014.4
12 13.10 Ю 10
{15}
н/о н/о +15.4 +12.5 83 +13 +13 1015.3 1014.4
14 13.10 Ю 12
{14}
н/о н/о +15.3 +12.4 83 +13 +13 1014.7 1013.8
13 13.10 Ю 11
{14}
н/о н/о +15.2 +12.3 83 +13 +13 1014.7 1013.8
15 13.10 Ю 12
{14}
н/о н/о +15.2 +12.5 84 +13 +13 1014.4 1013.5
16 13.10 Ю 12
{14}
н/о н/о +15.1 +12.4 84 +12 +12 1014.3 1013.4
17 13.10 Ю 11
{13}
н/о н/о +15.0 +12.5 85 +12 +12 1014.4 1013.5
18 13.10 Ю 10
{14}
н/о н/о +15.0 +12.5 85 +13 +13 1014.4 1013.5 +14.9 +15.5
20 13.10 ЮЗ 7
{10}
н/о н/о +14.7 +12.4 86 +13 +13 1014.7 1013.8
19 13.10 Ю 9
{12}
н/о н/о +15.0 +12.5 85 +13 +13 1014.3 1013.4
21 13.10 ЮЗ 6
{10}
н/о н/о +14.7 +12.4 86 +13 +13 1014.8 1013.9
22 13.10 Ю 10
{12}
н/о н/о +15.2 +12.7 85 +13 +13 1014.2 1013.3
23 13.10 ЮЗ 5
{9}
н/о н/о +15.2 +12.5 84 +14 +14 1014.3 1013.4
00 14.10 Ю 6
{12}
н/о н/о +14.7 +12.2 85 +13 +13 1013.5 1012.6
02 14.10 Ю 11
{13}
н/о н/о +14.5 +12.0 85 +12 +12 1012.4 1011.5
01 14.10 Ю 11
{13}
н/о н/о +14.6 +12.1 85 +12 +12 1013.0 1012.1
03 14.10 Ю 11
{14}
н/о н/о +14.5 +12.0 85 +12 +12 1012.0 1011.1
04 14.10 Ю 12
{14}
н/о н/о +14.5 +11.8 84 +12 +12 1011.7 1010.8
05 14.10 Ю 11
{14}
н/о н/о +14.4 +11.7 84 +12 +12 1011.4 1010.5
06 14.10 Ю 10
{14}
н/о н/о +14.3 +11.5 83 +12 +12 1011.2 1010.3 +14.3 +15.2
08 14.10 Ю 10
{13}
н/о н/о +14.5 +11.7 83 +12 +12 1011.6 1010.7
07 14.10 Ю 10
{13}
н/о н/о +14.4 +11.6 83 +12 +12 1011.4 1010.5
09 14.10 Ю 11
{13}
н/о н/о +14.5 +11.7 83 +12 +12 1011.6 1010.7
10 14.10 Ю 10
{13}
н/о н/о +14.6 +11.6 82 +12 +12 1011.5 1010.6
11 14.10 Ю 10
{13}
н/о н/о +14.5 +11.5 82 +12 +12 1011.4 1010.5
12 14.10 Ю 10
{13}
н/о н/о +14.4 +11.6 83 +12 +12 1010.6 1009.7
14 14.10 Ю 9
{12}
н/о н/о +14.3 +11.3 82 +12 +12 1009.7 1008.8
13 14.10 Ю 10
{13}
н/о н/о +14.4 +11.4 82 +12 +12 1010.0 1009.1
15 14.10 Ю 9
{11}
н/о н/о +14.4 +11.2 81 +12 +12 1009.1 1008.2
16 14.10 Ю 8
{12}
н/о н/о +14.3 +11.1 81 +12 +12 1008.8 1007.9
17 14.10 Ю 9
{12}
н/о н/о +14.5 +11.1 80 +12 +12 1008.4 1007.5
18 14.10 Ю 10
{13}
н/о н/о +14.3 +10.9 80 +12 +12 1008.0 1007.1 +14.3 +14.6
20 14.10 Ю 10
{13}
н/о н/о +14.0 +11.3 84 +11 +11 1007.6 1006.7
19 14.10 Ю 10
{13}
н/о н/о +14.1 +11.1 82 +11 +11 1007.8 1006.9
21 14.10 Ю 9
{12}
н/о н/о +14.0 +11.3 84 +11 +11 1007.8 1006.9
22 14.10 Ю 7
{10}
н/о н/о +13.9 +11.4 85 +12 +12 1007.4 1006.5
23 14.10 Ю 7
{9}
н/о н/о +13.9 +11.4 85 +12 +12 1007.5 1006.6
00 15.10 Ю 8
{13}
н/о н/о +14.1 +11.6 85 +12 +12 1007.4 1006.5
02 15.10 Ю 7
{10}
н/о н/о +14.1 +11.6 85 +12 +12 1007.7 1006.8
01 15.10 Ю 8
{11}
н/о н/о +14.1 +11.4 84 +12 +12 1007.5 1006.6
03 15.10 Ю 7
{9}
н/о н/о +14.1 +11.8 86 +12 +12 1007.8 1006.9
04 15.10 Ю 7 н/о н/о +14.1 +12.0 87 +12 +12 1007.8 1006.9
05 15.10 Ю 9
{12}
н/о н/о +14.1 +12.0 87 +11 +11 1008.1 1007.2
06 15.10 ЮЗ 8
{12}
н/о н/о +13.7 +11.8 88 +11 +11 1008.7 1007.8 +13.7 +14.3
08 15.10 ЮЗ 8
{10}
н/о н/о +13.1 +11.2 88 +10 +10 1009.8 1008.9
07 15.10 ЮЗ 8
{11}
н/о н/о +13.3 +11.4 88 +10 +10 1009.3 1008.4
09 15.10 ЮЗ 8
{10}
н/о н/о +13.0 +11.2 89 +10 +10 1010.6 1009.7
10 15.10 ЮЗ 7
{9}
н/о н/о +13.0 +11.2 89 +10 +10 1010.8 1009.9
11 15.10 ЮЗ 8
{10}
н/о н/о +13.2 +11.1 87 +10 +10 1010.9 1010.0
12 15.10 ЮЗ 8
{11}
н/о н/о +13.4 +10.9 85 +11 +11 1011.1 1010.2
14 15.10 ЮЗ 7
{8}
н/о н/о +13.1 +10.5 84 +10 +10 1011.3 1010.4
13 15.10 Ю 7
{9}
н/о н/о +13.1 +10.5 84 +10 +10 1011.1 1010.2
15 15.10 ЮЗ 6
{8}
н/о н/о +12.9 +10.1 83 +10 +10 1011.7 1010.8
16 15.10 ЮЗ 5
{7}
н/о н/о +12.8 +10.2 84 +11 +11 1012.3 1011.4
17 15.10 ЮЗ 3
{6}
н/о н/о +12.9 +10.4 85 +11 +11 1012.4 1011.5
18 15.10 Ю 4
{9}
н/о н/о +12.8 +10.5 86 +11 +11 1013.1 1012.2 +12.7 +13.7
20 15.10 Ю 5
{7}
н/о н/о +12.2 +9.6 84 +10 +10 1013.8 1012.9
19 15.10 Ю 4
{5}
н/о н/о +12.1 +9.3 83 +10 +10 1013.2 1012.3
21 15.10 Ю 5
{6}
н/о н/о +11.8 +9.0 83 +9 +9 1014.1 1013.2
22 15.10 Ю 5
{6}
н/о н/о +12.1 +9.7 85 +10 +10 1014.4 1013.5
23 15.10 ЮЗ 6
{8}
н/о н/о +11.9 +9.8 87 +9 +9 1015.0 1014.1
00 16.10 ЮЗ 5
{8}
н/о н/о +12.1 +10.0 87 +10 +10 1015.2 1014.3
02 16.10 С 6
{7}
н/о н/о +11.8 +9.7 87 +9 +9 1015.6 1014.7
01 16.10 С 3
{5}
н/о н/о +12.2 +10.1 87 +11 +11 1015.3 1014.4
03 16.10 СВ 7
{8}
н/о н/о +10.9 +9.0 88 +7 +7 1015.8 1014.9
04 16.10 С 7
{8}
н/о н/о +10.9 +9.2 89 +7 +7 1016.1 1015.2
05 16.10 С 7
{9}
н/о н/о +10.5 +8.8 89 +7 +7 1016.8 1015.9
06 16.10 С 8
{9}
н/о н/о +9.9 +8.2 89 +6 +6 1017.5 1016.6 +9.9 +12.9
08 16.10 СВ 7
{10}
н/о н/о +7.6 +6.2 91 +3 +3 1018.3 1017.4
07 16.10 СВ 8
{10}
н/о н/о +8.9 +7.4 90 +4 +4 1017.6 1016.7
09 16.10 СВ 5
{8}
н/о н/о +7.8 +6.4 91 +4 +4 1018.8 1017.9
10 16.10 СВ 4
{7}
н/о н/о +8.1 +6.7 91 +5 +5 1018.7 1017.8
11 16.10 СВ 5
{7}
н/о н/о +8.3 +6.6 89 +5 +5 1018.4 1017.5
12 16.10 С 4
{10}
н/о н/о +8.5 +6.8 89 +5 +5 1018.3 1017.4
14 16.10 СВ 4
{5}
н/о н/о +8.9 +7.0 88 +6 +6 1017.5 1016.6
13 16.10 С 4
{6}
н/о н/о +8.7 +6.8 88 +6 +6 1018.4 1017.5
15 16.10 СВ 4
{7}
н/о н/о +9.3 +7.4 88 +6 +6 1017.4 1016.5
16 16.10 СВ 4
{5}
н/о н/о +9.5 +7.8 89 +7 +7 1017.5 1016.6
17 16.10 СВ 3
{5}
н/о н/о +9.8 +7.9 88 +7 +7 1017.6 1016.7
18 16.10 С 4
{7}
н/о н/о +10.0 +8.1 88 +7 +7 1017.3 1016.4 +7.5 +10.0
20 16.10 СВ 3
{4}
н/о н/о +10.2 +8.3 88 +8 +8 1016.7 1015.8
19 16.10 С 3
{4}
н/о н/о +10.0 +8.1 88 +8 +8 1017.1 1016.2
21 16.10 СВ 2
{4}
н/о н/о +10.2 +8.3 88 +9 +9 1016.6 1015.7
22 16.10 С 1
{2}
н/о н/о +10.2 +8.3 88 +10 +10 1016.4 1015.5
23 16.10 С 2
{3}
н/о н/о +10.2 +8.3 88 +9 +9 1016.0 1015.1
00 17.10 СВ 1
{4}
н/о н/о +10.3 +8.6 89 +10 +10 1016.0 1015.1
02 17.10 Ю 5
{7}
н/о н/о +12.2 +10.4 89 +10 +10 1014.9 1014.0
01 17.10 В 1
{3}
н/о н/о +10.8 +9.1 89 +10 +10 1015.5 1014.6
03 17.10 Ю 6
{8}
н/о н/о +12.6 +10.8 89 +10 +10 1014.5 1013.6
04 17.10 Ю 7
{8}
н/о н/о +12.6 +10.7 88 +10 +10 1014.3 1013.4
05 17.10 ЮЗ 8
{10}
н/о н/о +12.7 +10.9 89 +10 +10 1014.3 1013.4
06 17.10 Ю 8
{10}
н/о н/о +13.0 +11.4 90 +10 +10 1014.0 1013.1 +9.9 +13.0
08 17.10 ЮЗ 10
{12}
н/о н/о +12.9 +11.5 91 +9 +9 1014.6 1013.7
07 17.10 ЮЗ 9 н/о н/о +13.1 +11.7 91 +10 +10 1014.2 1013.3
09 17.10 ЮЗ 11
{13}
н/о н/о +12.9 +11.5 91 +9 +9 1015.0 1014.1
10 17.10 ЮЗ 9
{12}
н/о н/о +12.9 +11.5 91 +10 +10 1015.2 1014.3
11 17.10 ЮЗ 9
{11}
н/о н/о +13.0 +11.6 91 +10 +10 1015.2 1014.3
12 17.10 ЮЗ 7
{13}
н/о н/о +13.1 +11.7 91 +10 +10 1015.0 1014.1
14 17.10 ЮЗ 7
{9}
н/о н/о +13.2 +11.8 91 +11 +11 1014.8 1013.9
13 17.10 ЮЗ 8
{10}
н/о н/о +13.1 +11.7 91 +10 +10 1015.0 1014.1
15 17.10 ЮЗ 7
{9}
н/о н/о +13.2 +11.8 91 +11 +11 1014.9 1014.0
16 17.10 ЮЗ 7
{9}
н/о н/о +13.1 +11.7 91 +10 +10 1014.8 1013.9
17 17.10 ЮЗ 9
{11}
н/о н/о +13.0 +11.6 91 +10 +10 1014.9 1014.0
18 17.10 ЮЗ 9
{11}
н/о н/о +12.7 +11.3 91 +9 +9 1015.5 1014.6 +12.6 +13.3
20 17.10 ЮЗ 8
{11}
н/о н/о +13.1 +11.7 91 +10 +10 1015.8 1014.9
19 17.10 ЮЗ 10
{11}
н/о н/о +12.9 +11.5 91 +9 +9 1015.4 1014.5
21 17.10 З 7
{10}
н/о н/о +13.0 +11.2 89 +10 +10 1015.8 1014.9
22 17.10 З 6
{7}
н/о н/о +12.7 +10.6 87 +10 +10 1016.0 1015.1
23 17.10 З 7
{9}
н/о н/о +12.5 +9.0 79 +10 +10 1016.2 1015.3
00 18.10 З 8
{11}
н/о н/о +12.2 +8.1 76 +9 +9 1016.5 1015.6

 

Местоположение метеостанции Ferder Fyr (Норвегия): широта 59.03 долгота 10.53 высота над уровнем моря 6 м.

В архиве по умолчанию представлена погода в Ferder Fyr за последнюю неделю. Архивные данные за месяц целиком и за предыдущие месяцы, начиная с января 2011 года, Вы можете получить, выбрав интересующий диапазон дат из раскрывающегося списка и нажав кнопку "Ввод!".


*Определитесь, кто Вы:
робот инопланетянин человек

Внимание! Время в таблицах - всемирное. Для получения местного времени необходимо прибавить поправку, которая в Ferder Fyr равна 1 ч.

Смотрите также архив погоды в соседних городах и на ближайших метеорологических станциях:

Погода в Stromtangen Fyr (Норвегия) (22 км)
Погода в Svenner Fyr (Норвегия) (23 км)
Погода в Melsom (Норвегия) (25 км)
Погода в Nordkoster (Швеция) (31 км)
Погода в Rygge (Норвегия) (42 км)
Погода в Sarpsborg (Норвегия) (44 км)
Погода в Gullholmen (Норвегия) (45 км)
Погода в Porsgrunn (Норвегия) (50 км)
Погода в Jomfruland (Норвегия) (58 км)
Погода в Vaderoarna (Швеция) (59 км)

Пояснения к столбцам:

Ветер - указаны скорость ветра в м/с - средняя за 10 мин, порывы в срок и между сроками (в фигурных скобках) и направление, откуда дует ветер: С - северный, СВ - северо-восточный, В - восточный, ЮВ - юго-восточный, Ю - южный, ЮЗ - юго-западный, З - западный, СЗ - северо-западный.
Видимость - горизонтальная дальность видимости в метрах или километрах. При видимости от 1 до 10 км при отсутствии осадков обычно наблюдается дымка, при ухудшении видимости до 1 км и менее - туман. В сухую погоду видимость может ухудшаться дымом, пылью или мглою.
Явления - указаны атмосферные явления, наблюдавшиеся в срок или в последний час перед сроком; фигурными скобками обозначены явления, наблюдавшиеся между сроками (за 1-3 часа до срока); квадратными скобками обозначены град или гололедные отложения с указанием их диаметра в мм.
Облачность - указаны через наклонную черту общая и нижняя облачность в баллах и высота нижней границы облаков в метрах; квадратными скобками обозначены формы облаков: Ci - перистые, Cs - перисто-слоистые, Cc - перисто-кучевые, Ac - высококучевые, As - высокослоистые, Sc - слоисто-кучевые, Ns - слоисто-дождевые, Cu - кучевые, Cb - кучево-дождевые. Подробнее классификацию облаков см. в Атласе облаков (PDF).
T - Температура воздуха - температура, измеренная на высоте 2 м над землей.
Td - Температура точки росы - температура, при понижении до которой содержащийся в воздухе водяной пар достигнет насыщения.
f - Относительная влажность воздуха - влажноcть воздуха, измеренная на высоте 2 м над землей.
Te - Эффективная температура - температура, которую ощущает одетый по сезону человек в тени. Характеристика душности погоды. При расчете учитывается влияние влажности воздуха и скорости ветра на теплоощущения человека.
Tes - Эффективная температура на солнце - температура, которую ощущает человек, с поправкой на солнечный нагрев. Характеристика знойности погоды. Зависит от высоты солнца над горизонтом, облачности и скорости ветра. Ночью, в пасмурную погоду, а также при ветре 12 м/с и более поправка равна нулю.
P - Атмосферное давление - приведенное к уровню моря атмосферное давление.
Po - Атмосферное давление - измеренное на уровне метеостанции атмосферное давление.
Tmin - Минимальная температура - минимум температуры воздуха на высоте 2 м над землей.
Tmax - Максимальная температура - максимум температуры воздуха на высоте 2 м над землей.
R - Количество осадков - Количество выпавших осадков за период времени, мм. При наведении курсора мыши на число - период времени, за который выпало указанное количество осадков.
R24 - Количество осадков - Количество выпавших осадков за 24 часа, мм.
S - Снежный покров - Высота снежного покрова, см. При наведении курсора мыши на число - состояние снежного покрова и степень покрытия местности в баллах.